Regional Weather Roundup
Issued by NWS

Home | Current Version | Previous Version | Text Only | Print | Product List | Glossary Off
Versions: 1 2 3 4 5 6 7 8 9 10 11 12 13 14 15 16 17 18 19 20 21 22 23 24 25 26 27 28 29 30 31 32 33 34 35 36 37 38 39 40 41 42 43 44 45 46 47 48 49 50

000
ASUS45 KCYS 231210
RWRWY

WYOMING REGIONAL WEATHER ROUNDUP
NATIONAL WEATHER SERVICE CHEYENNE WY
600 AM MDT SAT MAY 23 2015

NOTE:  "FAIR" INDICATES FEW OR NO CLOUDS BELOW 12,000 FEET
WITH NO SIGNIFICANT WEATHER AND/OR OBSTRUCTIONS TO VISIBILITY.

WYZ001-231300-
YELLOWSTONE NATIONAL PARK

CITY           SKY/WX    TMP DP  RH WIND       PRES   REMARKS
LK YELLOWSTONE   N/A     38  36  92 N5        30.02F WCI  34
6HR MIN TEMP:  35; 6HR MAX TEMP:  39;

W YELLOWSTONE  NOT AVBL

$$
WYZ002>013-054>058-071-098>099-231300-
NORTHERN WYOMING

CITY           SKY/WX    TMP DP  RH WIND       PRES   REMARKS
JACKSON        CLOUDY    45  43  93 CALM      29.96S
CODY           CLOUDY    48  46  93 NE5       29.97R
GREYBULL       CLOUDY    53  50  89 NW5       29.93R
6HR MIN TEMP:  53; 6HR MAX TEMP:  55; 6HR PCP: TRACE;

WORLAND        LGT RAIN  51  49  92 CALM      29.93S
6HR MIN TEMP:  51; 6HR MAX TEMP:  53; 6HR PCP:  0.05;

SHERIDAN       CLOUDY    46  43  89 NW3       29.97R
6HR MIN TEMP:  44; 6HR MAX TEMP:  50;

BUFFALO        CLOUDY    45  44  97 SE7       29.97S
6HR MIN TEMP:  45; 6HR MAX TEMP:  46;

GILLETTE       CLOUDY    46  44  93 SE8       29.98F
6HR MIN TEMP:  46; 6HR MAX TEMP:  47;

HULETT         CLOUDY    45  41  87 CALM      30.03S
NEWCASTLE      CLOUDY    45  43  93 S6        30.02S

$$
WYZ014>020-022>026-101>103-231300-
CENTRAL WYOMING

CITY           SKY/WX    TMP DP  RH WIND       PRES   REMARKS
BIG PINEY      CLOUDY    40  38  93 NW5       29.97F
6HR MIN TEMP:  40; 6HR MAX TEMP:  42; 6HR PCP:  0.02;

PINEDALE       CLOUDY    41  41 100 E8        29.99S
DUBOIS         DRIZZLE   37  37 100 N3        29.97S
LANDER         CLOUDY    45  42  89 CALM      29.93S
6HR MIN TEMP:  44; 6HR MAX TEMP:  48; 6HR PCP: TRACE;

RIVERTON         N/A    N/A N/A N/A MISG      29.94F
                                      6HR PCP:  0.02;

CASPER         FOG       40  39  97 CALM      29.97R VSB<1/4
6HR MIN TEMP:  37; 6HR MAX TEMP:  44;

DOUGLAS        CLOUDY    43  43 100 SE14      29.98F FOG
6HR MIN TEMP:  43; 6HR MAX TEMP:  45;


$$
WYZ021-027>030-104>119-231300-
SOUTHERN WYOMING

CITY           SKY/WX    TMP DP  RH WIND       PRES   REMARKS
EVANSTON       FOG       36  35  96 S7        29.96S VSB 1/4 WCI  30
6HR MIN TEMP:  38; 6HR MAX TEMP:  42; 6HR PCP:  0.02;

KEMMERER       CLOUDY    37  37 100 NW5       29.96F WCI  34
FORT BRIDGER   SUNNY     39  39 100 CALM      29.99R
ROCK SPRINGS   FAIR      38  35  89 SE7       29.97F WCI  33
6HR MIN TEMP:  37; 6HR MAX TEMP:  42;

DIXON          FAIR      36  34  92 CALM      30.02S
RAWLINS        FAIR      38  33  82 CALM      30.01R
6HR MIN TEMP:  35; 6HR MAX TEMP:  44;

SARATOGA       FAIR      41  36  81 SE8       30.01S
LARAMIE        FAIR      38  37  97 SE18      30.02R WCI  28
6HR MIN TEMP:  37; 6HR MAX TEMP:  41;

CHEYENNE       FOG       42  42 100 S7        30.02S VSB 1/4
6HR MIN TEMP:  42; 6HR MAX TEMP:  44;

TORRINGTON     FOG       45  44  97 E10       29.99F VSB 1/2
6HR MIN TEMP:  44; 6HR MAX TEMP:  45;

PINE BLUFFS    CLOUDY    43  43 100 CALM      30.03S FOG

$$



USA.gov is the U.S. government's official web portal to all federal, state and local government web resources and services.